Hourly Weather Gohad

Today, 15 May, Saturday

Time Temperature Precipitation Wind Pressure Humidity
00:00 +33°C° 0 mm 1 mps 737 mmHg 33%
01:00 +33°C° 0 mm 1 mps 737 mmHg 34%
02:00 +34°C° 0 mm 2 mps 737 mmHg 35%
03:00 +32°C° 0 mm 2 mps 737 mmHg 35%
04:00 +32°C° 0 mm 2 mps 738 mmHg 35%
05:00 +32°C° 0 mm 2 mps 738 mmHg 35%
06:00 +35°C° 0 mm 3 mps 738 mmHg 32%
07:00 +36°C° 0 mm 3 mps 739 mmHg 28%
08:00 +38°C° 0 mm 4 mps 739 mmHg 25%
09:00 +39°C° 0 mm 3 mps 739 mmHg 22%
10:00 +42°C° 0 mm 3 mps 739 mmHg 20%
11:00 +44°C° 0 mm 3 mps 739 mmHg 17%
12:00 +44°C° 0 mm 3 mps 738 mmHg 16%
13:00 +45°C° 0 mm 2 mps 737 mmHg 15%
14:00 +45°C° 0 mm 2 mps 736 mmHg 14%
15:00 +45°C° 0 mm 2 mps 736 mmHg 14%
16:00 +44°C° 0 mm 3 mps 736 mmHg 15%
17:00 +44°C° 0 mm 4 mps 736 mmHg 15%
18:00 +43°C° 0 mm 4 mps 736 mmHg 16%
19:00 +42°C° 0 mm 4 mps 737 mmHg 18%
20:00 +41°C° 0 mm 5 mps 737 mmHg 20%
21:00 +40°C° 0 mm 4 mps 738 mmHg 22%
22:00 +38°C° 0 mm 3 mps 738 mmHg 25%
23:00 +37°C° 0 mm 3 mps 738 mmHg 27%

Tomorrow, 16 May, Sunday

Time Temperature Precipitation Wind Pressure Humidity
00:00 +36°C° 0 mm 2 mps 738 mmHg 27%
01:00 +36°C° 0 mm 2 mps 738 mmHg 28%
02:00 +36°C° 0 mm 2 mps 737 mmHg 28%
03:00 +35°C° 0 mm 2 mps 738 mmHg 28%
04:00 +35°C° 0 mm 2 mps 738 mmHg 29%
05:00 +35°C° 0 mm 2 mps 738 mmHg 29%
06:00 +36°C° 0 mm 3 mps 739 mmHg 26%
07:00 +38°C° 0 mm 3 mps 739 mmHg 23%
08:00 +41°C° 0 mm 4 mps 740 mmHg 20%
09:00 +42°C° 0 mm 4 mps 739 mmHg 18%
10:00 +44°C° 0 mm 4 mps 739 mmHg 16%
11:00 +45°C° 0 mm 4 mps 739 mmHg 15%
12:00 +46°C° 0 mm 3 mps 738 mmHg 13%
13:00 +47°C° 0 mm 3 mps 738 mmHg 12%
14:00 +47°C° 0 mm 3 mps 737 mmHg 11%
15:00 +47°C° 0 mm 3 mps 737 mmHg 11%
16:00 +47°C° 0 mm 3 mps 736 mmHg 11%
17:00 +47°C° 0 mm 3 mps 736 mmHg 10%
18:00 +45°C° 0 mm 3 mps 737 mmHg 12%
19:00 +43°C° 0 mm 2 mps 737 mmHg 13%
20:00 +42°C° 0 mm 2 mps 737 mmHg 15%
21:00 +41°C° 0 mm 2 mps 738 mmHg 17%
22:00 +40°C° 0 mm 2 mps 738 mmHg 19%
23:00 +39°C° 0 mm 2 mps 738 mmHg 21%

Day after tomorrow, 17 May, Monday

Time Temperature Precipitation Wind Pressure Humidity
00:00 +39°C° 0 mm 2 mps 738 mmHg 22%
01:00 +39°C° 0 mm 2 mps 738 mmHg 23%
02:00 +38°C° 0 mm 2 mps 738 mmHg 23%
03:00 +38°C° 0 mm 2 mps 738 mmHg 23%
04:00 +37°C° 0 mm 2 mps 738 mmHg 22%
05:00 +37°C° 0 mm 2 mps 738 mmHg 22%
06:00 +38°C° 0 mm 2 mps 738 mmHg 19%
07:00 +40°C° 0 mm 3 mps 739 mmHg 17%
08:00 +42°C° 0 mm 3 mps 739 mmHg 14%
09:00 +42°C° 0 mm 3 mps 739 mmHg 13%
10:00 +43°C° 0 mm 4 mps 740 mmHg 13%
11:00 +43°C° 0 mm 5 mps 740 mmHg 13%
12:00 +43°C° 0 mm 5 mps 739 mmHg 13%
13:00 +43°C° 0 mm 5 mps 739 mmHg 13%
14:00 +45°C° 0 mm 6 mps 738 mmHg 14%
15:00 +44°C° 0 mm 6 mps 738 mmHg 14%
16:00 +44°C° 0 mm 6 mps 738 mmHg 15%
17:00 +44°C° 0 mm 6 mps 738 mmHg 15%
18:00 +42°C° 0 mm 4 mps 738 mmHg 17%
19:00 +40°C° 0 mm 3 mps 738 mmHg 19%
20:00 +39°C° 0 mm 2 mps 739 mmHg 20%
21:00 +39°C° 0 mm 3 mps 739 mmHg 20%
22:00 +39°C° 0 mm 3 mps 739 mmHg 20%
23:00 +39°C° 0 mm 3 mps 738 mmHg 20%

18 May, Tuesday

Time Temperature Precipitation Wind Pressure Humidity
00:00 +39°C° 0 mm 3 mps 738 mmHg 21%
01:00 +38°C° 0 mm 3 mps 738 mmHg 23%
02:00 +37°C° 0 mm 3 mps 738 mmHg 24%
03:00 +37°C° 0 mm 4 mps 738 mmHg 26%
04:00 +37°C° 0 mm 4 mps 738 mmHg 27%
05:00 +37°C° 0 mm 4 mps 738 mmHg 29%
06:00 +37°C° 0 mm 4 mps 739 mmHg 31%
07:00 +36°C° 0 mm 4 mps 739 mmHg 32%
08:00 +36°C° 0 mm 4 mps 740 mmHg 34%
09:00 +36°C° 0 mm 4 mps 740 mmHg 34%
10:00 +37°C° 0 mm 4 mps 740 mmHg 33%
11:00 +37°C° 0 mm 3 mps 740 mmHg 33%
12:00 +38°C° 0 mm 3 mps 739 mmHg 29%
13:00 +39°C° 0 mm 2 mps 739 mmHg 26%
14:00 +40°C° 0 mm 2 mps 738 mmHg 22%
15:00 +40°C° 0 mm 2 mps 738 mmHg 21%
16:00 +40°C° 0 mm 3 mps 738 mmHg 20%
17:00 +40°C° 0 mm 3 mps 738 mmHg 19%
18:00 +39°C° 0 mm 3 mps 738 mmHg 20%
19:00 +38°C° 0 mm 3 mps 738 mmHg 21%
20:00 +37°C° 0 mm 3 mps 738 mmHg 22%
21:00 +36°C° 0 mm 3 mps 738 mmHg 23%
22:00 +36°C° 0 mm 3 mps 738 mmHg 24%
23:00 +35°C° 0 mm 4 mps 738 mmHg 25%

19 May, Wednesday

Time Temperature Precipitation Wind Pressure Humidity
00:00 +34°C° 0 mm 5 mps 738 mmHg 35%
01:00 +33°C° 0 mm 6 mps 738 mmHg 44%
02:00 +32°C° 0 mm 7 mps 738 mmHg 54%
03:00 +32°C° 0 mm 6 mps 738 mmHg 54%
04:00 +32°C° 0 mm 5 mps 738 mmHg 53%
05:00 +33°C° 0 mm 4 mps 738 mmHg 53%
06:00 +34°C° 0 mm 4 mps 739 mmHg 50%
07:00 +34°C° 0 mm 4 mps 740 mmHg 46%
08:00 +35°C° 0 mm 5 mps 740 mmHg 43%
09:00 +37°C° 0 mm 4 mps 740 mmHg 39%
10:00 +38°C° 0 mm 4 mps 740 mmHg 34%
11:00 +41°C° 0 mm 4 mps 739 mmHg 30%
12:00 +41°C° 0 mm 4 mps 739 mmHg 28%
13:00 +42°C° 0 mm 5 mps 738 mmHg 26%
14:00 +43°C° 0 mm 5 mps 737 mmHg 25%
15:00 +43°C° 0 mm 5 mps 737 mmHg 25%
16:00 +43°C° 0 mm 5 mps 736 mmHg 26%
17:00 +42°C° 0 mm 5 mps 736 mmHg 27%
18:00 +41°C° 0 mm 4 mps 736 mmHg 29%
19:00 +40°C° 0 mm 4 mps 737 mmHg 31%
20:00 +40°C° 0 mm 4 mps 737 mmHg 34%
21:00 +38°C° 0 mm 4 mps 737 mmHg 35%
22:00 +38°C° 0 mm 4 mps 737 mmHg 36%
23:00 +37°C° 0 mm 4 mps 737 mmHg 37%

20 May, Thursday

Time Temperature Precipitation Wind Pressure Humidity
00:00 +37°C° 0 mm 4 mps 736 mmHg 38%
01:00 +36°C° 0 mm 4 mps 736 mmHg 39%
02:00 +36°C° 0 mm 4 mps 736 mmHg 41%
03:00 +35°C° 0 mm 4 mps 736 mmHg 43%
04:00 +35°C° 0 mm 3 mps 736 mmHg 44%
05:00 +34°C° 0 mm 3 mps 737 mmHg 46%
06:00 +36°C° 0 mm 4 mps 737 mmHg 43%
07:00 +37°C° 0 mm 5 mps 738 mmHg 39%
08:00 +40°C° 0 mm 6 mps 738 mmHg 35%
09:00 +41°C° 0 mm 5 mps 738 mmHg 32%
10:00 +43°C° 0 mm 5 mps 738 mmHg 30%
11:00 +45°C° 0 mm 5 mps 738 mmHg 27%
12:00 +45°C° 0 mm 5 mps 737 mmHg 27%
13:00 +45°C° 0 mm 5 mps 737 mmHg 27%
14:00 +45°C° 0 mm 5 mps 736 mmHg 27%
15:00 +43°C° 0.2 mm 5 mps 736 mmHg 29%
16:00 +42°C° 0.2 mm 5 mps 736 mmHg 31%
17:00 +41°C° 0.2 mm 5 mps 736 mmHg 33%
18:00 +41°C° 0.2 mm 4 mps 736 mmHg 33%
19:00 +40°C° 0.2 mm 3 mps 736 mmHg 32%
20:00 +39°C° 0.2 mm 3 mps 736 mmHg 32%
21:00 +38°C° 0.1 mm 3 mps 737 mmHg 35%
22:00 +38°C° 0.1 mm 3 mps 737 mmHg 38%
23:00 +37°C° 0.1 mm 2 mps 737 mmHg 41%
Show more